Simultaneous Nadir Overpasses (SNOs) Predictions

Prediction of SNOs between FY3D and NPP Satellite Orbit:

Table of predicted SNOs for the next 14.0 days since TLE Epoch: 5/8/2021
Index Date (FY3D) Time (FY3D) Lat,Lon (FY3D) SZA (FY3D ) Date (NPP) Time (NPP) Lat,Lon (NPP) SZA (NPP ) Distance(km) Time Diff (sec)
1 05/08/2021 15:49:44 -81.25, 59.45 111.19 05/08/2021 15:48:28 -81.27, 59.52 111.15 2.73 76
2 05/08/2021 17:31:05 -81.22, 37.16 111.64 05/08/2021 17:29:50 -81.21, 37.22 111.61 1.01 75
3 05/08/2021 18:21:50 81.22,-155.59 68.36 05/08/2021 18:20:35 81.22,-155.48 68.39 1.89 75
4 05/08/2021 19:12:34 -81.22, 11.78 111.66 05/08/2021 19:11:20 -81.22, 11.83 111.63 0.95 74
5 05/08/2021 20:03:19 81.22, 179.02 68.34 05/08/2021 20:02:05 81.22, 179.13 68.37 1.82 74
6 05/08/2021 20:54:03 -81.22, -13.61 111.68 05/08/2021 20:52:50 -81.22, -13.55 111.64 0.89 73
7 05/08/2021 21:44:48 81.22, 153.64 68.33 05/08/2021 21:43:35 81.22, 153.74 68.36 1.75 73
8 05/08/2021 22:35:32 -81.22, -38.99 111.69 05/08/2021 22:34:20 -81.22, -38.94 111.66 0.84 72
9 05/08/2021 23:26:17 81.22, 128.25 68.31 05/08/2021 23:25:05 81.22, 128.35 68.34 1.68 72
10 05/09/2021 00:17:01 -81.22, -64.38 111.71 05/09/2021 00:15:50 -81.22, -64.33 111.68 0.78 71
11 05/09/2021 01:07:46 81.22, 102.86 68.29 05/09/2021 01:06:35 81.22, 102.96 68.32 1.61 71
12 05/09/2021 01:58:30 -81.22, -89.77 111.73 05/09/2021 01:57:20 -81.22, -89.72 111.69 0.72 70
13 05/09/2021 02:49:15 81.22, 77.48 68.28 05/09/2021 02:48:05 81.22, 77.57 68.31 1.54 70
14 05/09/2021 03:39:59 -81.22,-115.15 111.74 05/09/2021 03:38:50 -81.22,-115.11 111.71 0.67 69
15 05/09/2021 04:30:44 81.22, 52.09 68.26 05/09/2021 04:29:35 81.22, 52.18 68.29 1.47 69
16 05/09/2021 05:21:28 -81.22,-140.54 111.76 05/09/2021 05:20:20 -81.22,-140.50 111.73 0.61 68
17 05/09/2021 06:12:13 81.22, 26.71 68.25 05/09/2021 06:11:05 81.22, 26.79 68.27 1.40 68
18 05/09/2021 07:02:57 -81.22,-165.92 111.78 05/09/2021 07:01:50 -81.22,-165.89 111.74 0.55 67
19 05/09/2021 07:53:42 81.22, 1.32 68.23 05/09/2021 07:52:35 81.22, 1.40 68.26 1.33 67
20 05/09/2021 08:44:26 -81.22, 168.69 111.79 05/09/2021 08:43:20 -81.22, 168.72 111.76 0.50 66
21 05/09/2021 09:35:11 81.22, -24.07 68.21 05/09/2021 09:34:05 81.22, -23.99 68.24 1.26 66
22 05/09/2021 10:25:55 -81.22, 143.30 111.81 05/09/2021 10:24:50 -81.22, 143.33 111.78 0.44 65
23 05/09/2021 11:16:40 81.22, -49.45 68.20 05/09/2021 11:15:35 81.22, -49.38 68.22 1.20 65
24 05/09/2021 12:07:24 -81.22, 117.92 111.83 05/09/2021 12:06:20 -81.22, 117.94 111.79 0.39 64
25 05/09/2021 12:58:08 81.21, -74.45 68.13 05/09/2021 12:57:04 81.21, -74.39 68.15 1.13 64
26 05/09/2021 13:48:53 -81.22, 92.53 111.84 05/09/2021 13:47:50 -81.22, 92.55 111.81 0.34 63
27 05/09/2021 14:39:37 81.21, -99.84 68.11 05/09/2021 14:38:34 81.21, -99.78 68.14 1.06 63
28 05/09/2021 15:30:22 -81.22, 67.15 111.86 05/09/2021 15:29:20 -81.22, 67.16 111.82 0.29 62
29 05/09/2021 16:21:06 81.21,-125.22 68.09 05/09/2021 16:20:04 81.21,-125.17 68.12 0.99 62
30 05/09/2021 17:11:51 -81.22, 41.76 111.87 05/09/2021 17:10:50 -81.22, 41.77 111.84 0.24 61
31 05/09/2021 18:02:35 81.21,-150.61 68.08 05/09/2021 18:01:34 81.21,-150.56 68.10 0.92 61
32 05/09/2021 18:53:20 -81.22, 16.37 111.89 05/09/2021 18:52:20 -81.22, 16.38 111.86 0.20 60
33 05/09/2021 19:44:04 81.21,-176.00 68.06 05/09/2021 19:43:04 81.21,-175.95 68.09 0.85 60
34 05/09/2021 20:34:49 -81.22, -9.01 111.91 05/09/2021 20:33:50 -81.22, -9.01 111.87 0.16 59
35 05/09/2021 21:25:33 81.21, 158.62 68.04 05/09/2021 21:24:34 81.21, 158.66 68.07 0.78 59
36 05/09/2021 22:16:18 -81.22, -34.40 111.92 05/09/2021 22:15:20 -81.22, -34.40 111.89 0.14 58
37 05/09/2021 23:07:02 81.21, 133.23 68.03 05/09/2021 23:06:04 81.21, 133.27 68.06 0.72 58
38 05/09/2021 23:57:47 -81.22, -59.79 111.94 05/09/2021 23:56:50 -81.22, -59.79 111.91 0.15 57
39 05/10/2021 00:48:31 81.21, 107.84 68.01 05/10/2021 00:47:34 81.21, 107.88 68.04 0.65 57
40 05/10/2021 01:39:16 -81.22, -85.17 111.95 05/10/2021 01:38:20 -81.22, -85.18 111.92 0.17 56
41 05/10/2021 02:30:00 81.22, 82.46 68.00 05/10/2021 02:29:04 81.21, 82.49 68.02 0.58 56
42 05/10/2021 03:20:45 -81.22,-110.56 111.97 05/10/2021 03:19:50 -81.22,-110.57 111.94 0.21 55
43 05/10/2021 04:11:29 81.22, 57.07 67.98 05/10/2021 04:10:34 81.21, 57.10 68.01 0.51 55
44 05/10/2021 05:02:14 -81.22,-135.94 111.99 05/10/2021 05:01:20 -81.22,-135.96 111.95 0.25 54
45 05/10/2021 05:52:58 81.22, 31.68 67.96 05/10/2021 05:52:04 81.21, 31.71 67.99 0.45 54
46 05/10/2021 06:43:43 -81.22,-161.33 112.00 05/10/2021 06:42:50 -81.22,-161.34 111.97 0.30 53
47 05/10/2021 07:34:27 81.22, 6.30 67.95 05/10/2021 07:33:34 81.21, 6.32 67.97 0.38 53
48 05/10/2021 08:25:11 -81.21, 173.67 112.07 05/10/2021 08:24:19 -81.21, 173.65 112.04 0.35 52
49 05/10/2021 09:15:56 81.22, -19.09 67.93 05/10/2021 09:15:04 81.21, -19.07 67.96 0.31 52
50 05/10/2021 10:06:39 -81.22, 148.28 112.09 05/10/2021 10:05:48 -81.21, 148.26 112.06 0.40 51
51 05/10/2021 10:57:24 81.22, -44.47 67.92 05/10/2021 10:56:33 81.22, -44.46 67.94 0.25 51
52 05/10/2021 11:48:08 -81.22, 122.90 112.11 05/10/2021 11:47:18 -81.21, 122.87 112.07 0.45 50
53 05/10/2021 12:38:53 81.22, -69.86 67.90 05/10/2021 12:38:03 81.22, -69.85 67.93 0.19 50
54 05/10/2021 13:29:37 -81.22, 97.51 112.12 05/10/2021 13:28:48 -81.21, 97.48 112.09 0.50 49
55 05/10/2021 14:20:22 81.22, -95.25 67.88 05/10/2021 14:19:33 81.22, -95.24 67.91 0.13 49
56 05/10/2021 15:11:06 -81.22, 72.12 112.14 05/10/2021 15:10:18 -81.22, 72.09 112.11 0.56 48
57 05/10/2021 16:01:51 81.22,-120.63 67.87 05/10/2021 16:01:03 81.22,-120.63 67.90 0.10 48
58 05/10/2021 16:52:35 -81.22, 46.74 112.15 05/10/2021 16:51:48 -81.22, 46.70 112.12 0.61 47
59 05/10/2021 17:43:20 81.22,-146.02 67.85 05/10/2021 17:42:33 81.22,-146.02 67.88 0.10 47
60 05/10/2021 18:34:04 -81.22, 21.35 112.17 05/10/2021 18:33:18 -81.22, 21.31 112.14 0.67 46
61 05/10/2021 19:24:49 81.22,-171.41 67.84 05/10/2021 19:24:03 81.22,-171.41 67.86 0.14 46
62 05/10/2021 20:15:33 -81.22, -4.04 112.18 05/10/2021 20:14:48 -81.22, -4.08 112.15 0.72 45
63 05/10/2021 21:06:18 81.22, 163.21 67.82 05/10/2021 21:05:33 81.22, 163.20 67.85 0.20 45
64 05/10/2021 21:57:02 -81.22, -29.42 112.20 05/10/2021 21:56:18 -81.22, -29.47 112.17 0.78 44
65 05/10/2021 22:47:47 81.22, 137.82 67.81 05/10/2021 22:47:03 81.22, 137.81 67.83 0.26 44
66 05/10/2021 23:38:31 -81.22, -54.81 112.22 05/10/2021 23:37:48 -81.22, -54.86 112.19 0.83 43
67 05/11/2021 00:29:16 81.22, 112.43 67.79 05/11/2021 00:28:33 81.22, 112.41 67.82 0.33 43
68 05/11/2021 01:20:00 -81.22, -80.19 112.23 05/11/2021 01:19:18 -81.22, -80.25 112.20 0.89 42
69 05/11/2021 02:10:45 81.22, 87.05 67.77 05/11/2021 02:10:03 81.22, 87.02 67.80 0.39 42
70 05/11/2021 03:01:29 -81.22,-105.58 112.25 05/11/2021 03:00:48 -81.22,-105.64 112.22 0.94 41
71 05/11/2021 03:52:14 81.22, 61.66 67.76 05/11/2021 03:51:33 81.22, 61.63 67.79 0.46 41
72 05/11/2021 04:42:58 -81.22,-130.97 112.26 05/11/2021 04:42:18 -81.22,-131.03 112.23 1.00 40
73 05/11/2021 05:33:43 81.22, 36.27 67.74 05/11/2021 05:33:03 81.22, 36.24 67.77 0.52 40
74 05/11/2021 06:24:27 -81.22,-156.35 112.28 05/11/2021 06:23:48 -81.22,-156.42 112.25 1.05 39
75 05/11/2021 07:15:12 81.22, 10.89 67.73 05/11/2021 07:14:33 81.22, 10.85 67.75 0.59 39
76 05/11/2021 08:05:56 -81.22, 178.26 112.29 05/11/2021 08:05:18 -81.22, 178.20 112.26 1.11 38
77 05/11/2021 08:56:41 81.22, -14.50 67.71 05/11/2021 08:56:03 81.22, -14.54 67.74 0.65 38
78 05/11/2021 09:47:25 -81.22, 152.87 112.31 05/11/2021 09:46:48 -81.22, 152.81 112.28 1.16 37
79 05/11/2021 10:38:10 81.22, -39.89 67.70 05/11/2021 10:37:33 81.22, -39.93 67.72 0.72 37
80 05/11/2021 11:28:54 -81.22, 127.49 112.33 05/11/2021 11:28:18 -81.22, 127.42 112.30 1.22 36
81 05/11/2021 12:19:39 81.22, -65.27 67.68 05/11/2021 12:19:03 81.22, -65.32 67.71 0.79 36
82 05/11/2021 13:10:23 -81.22, 102.10 112.34 05/11/2021 13:09:48 -81.22, 102.03 112.31 1.27 35
83 05/11/2021 14:01:08 81.22, -90.66 67.67 05/11/2021 14:00:33 81.22, -90.71 67.69 0.85 35
84 05/11/2021 14:51:52 -81.22, 76.71 112.36 05/11/2021 14:51:18 -81.22, 76.64 112.33 1.33 34
85 05/11/2021 15:42:37 81.22,-116.05 67.65 05/11/2021 15:42:03 81.22,-116.10 67.68 0.92 34
86 05/11/2021 16:33:21 -81.22, 51.33 112.37 05/11/2021 16:32:48 -81.22, 51.25 112.34 1.38 33
87 05/11/2021 17:24:06 81.22,-141.43 67.63 05/11/2021 17:23:33 81.22,-141.49 67.66 0.99 33
88 05/11/2021 18:14:50 -81.22, 25.94 112.39 05/11/2021 18:14:18 -81.22, 25.86 112.36 1.44 32
89 05/11/2021 19:05:35 81.22,-166.82 67.62 05/11/2021 19:05:03 81.22,-166.88 67.65 1.05 32
90 05/11/2021 19:56:19 -81.22, 0.56 112.40 05/11/2021 19:55:48 -81.22, 0.47 112.37 1.49 31
91 05/11/2021 20:47:04 81.22, 167.79 67.60 05/11/2021 20:46:33 81.22, 167.73 67.63 1.12 31
92 05/11/2021 21:37:48 -81.22, -24.83 112.42 05/11/2021 21:37:18 -81.22, -24.92 112.39 1.55 30
93 05/11/2021 22:28:33 81.22, 142.41 67.59 05/11/2021 22:28:03 81.22, 142.34 67.62 1.19 30
94 05/11/2021 23:19:17 -81.22, -50.22 112.43 05/11/2021 23:18:48 -81.22, -50.31 112.40 1.60 29
95 05/12/2021 00:10:02 81.22, 117.02 67.57 05/12/2021 00:09:33 81.22, 116.95 67.60 1.25 29
96 05/12/2021 01:00:46 -81.22, -75.60 112.45 05/12/2021 01:00:18 -81.22, -75.70 112.42 1.66 28
97 05/12/2021 01:51:31 81.22, 91.63 67.56 05/12/2021 01:51:03 81.22, 91.56 67.58 1.32 28
98 05/12/2021 02:42:15 -81.22,-100.99 112.46 05/12/2021 02:41:48 -81.22,-101.09 112.43 1.72 27
99 05/12/2021 03:33:00 81.22, 66.25 67.54 05/12/2021 03:32:33 81.22, 66.17 67.57 1.38 27
100 05/12/2021 04:23:44 -81.22,-126.38 112.48 05/12/2021 04:23:18 -81.22,-126.48 112.45 1.77 26
101 05/12/2021 05:14:29 81.22, 40.86 67.53 05/12/2021 05:14:03 81.22, 40.78 67.55 1.45 26
102 05/12/2021 06:05:13 -81.22,-151.76 112.49 05/12/2021 06:04:48 -81.22,-151.87 112.47 1.83 25
103 05/12/2021 06:55:58 81.22, 15.47 67.51 05/12/2021 06:55:33 81.22, 15.39 67.54 1.52 25
104 05/12/2021 07:46:42 -81.22,-177.15 112.51 05/12/2021 07:46:18 -81.22,-177.26 112.48 1.88 24
105 05/12/2021 08:37:27 81.22, -9.91 67.50 05/12/2021 08:37:03 81.22, -10.01 67.52 1.58 24
106 05/12/2021 09:28:11 -81.22, 157.46 112.53 05/12/2021 09:27:48 -81.22, 157.35 112.50 1.94 23
107 05/12/2021 10:18:56 81.22, -35.30 67.48 05/12/2021 10:18:33 81.22, -35.40 67.51 1.65 23
108 05/12/2021 11:09:40 -81.22, 132.08 112.54 05/12/2021 11:09:18 -81.22, 131.96 112.51 1.99 22
109 05/12/2021 12:00:25 81.22, -60.69 67.47 05/12/2021 12:00:03 81.23, -60.79 67.49 1.71 22
110 05/12/2021 12:51:08 -81.22, 106.69 112.56 05/12/2021 12:50:47 -81.22, 106.57 112.53 2.05 21
111 05/12/2021 13:41:53 81.22, -86.07 67.45 05/12/2021 13:41:32 81.23, -86.18 67.48 1.78 21
112 05/12/2021 14:32:37 -81.22, 81.30 112.57 05/12/2021 14:32:17 -81.22, 81.18 112.54 2.10 20
113 05/12/2021 15:23:22 81.22,-111.46 67.44 05/12/2021 15:23:02 81.23,-111.57 67.46 1.84 20
114 05/12/2021 16:14:06 -81.22, 55.92 112.59 05/12/2021 16:13:47 -81.22, 55.79 112.56 2.16 19
115 05/12/2021 17:04:51 81.22,-136.85 67.42 05/12/2021 17:04:32 81.23,-136.96 67.45 1.91 19
116 05/12/2021 17:55:35 -81.22, 30.53 112.60 05/12/2021 17:55:17 -81.22, 30.40 112.57 2.21 18
117 05/12/2021 18:46:20 81.22,-162.23 67.41 05/12/2021 18:46:02 81.23,-162.35 67.43 1.97 18
118 05/12/2021 19:37:04 -81.22, 5.14 112.62 05/12/2021 19:36:47 -81.23, 5.01 112.59 2.27 17
119 05/12/2021 20:27:49 81.22, 172.38 67.39 05/12/2021 20:27:32 81.23, 172.26 67.42 2.04 17
120 05/12/2021 21:18:33 -81.22, -20.24 112.63 05/12/2021 21:18:17 -81.23, -20.38 112.60 2.32 16
121 05/12/2021 22:09:18 81.22, 146.99 67.38 05/12/2021 22:09:02 81.23, 146.87 67.40 2.11 16
122 05/12/2021 23:00:02 -81.22, -45.63 112.65 05/12/2021 22:59:47 -81.23, -45.77 112.62 2.38 15
123 05/12/2021 23:50:47 81.22, 121.61 67.36 05/12/2021 23:50:32 81.23, 121.48 67.39 2.17 15
124 05/13/2021 00:41:31 -81.22, -71.02 112.66 05/13/2021 00:41:17 -81.23, -71.16 112.63 2.43 14
125 05/13/2021 01:32:16 81.22, 96.22 67.35 05/13/2021 01:32:02 81.23, 96.09 67.37 2.24 14
126 05/13/2021 02:23:00 -81.22, -96.40 112.68 05/13/2021 02:22:47 -81.23, -96.55 112.65 2.49 13
127 05/13/2021 03:13:45 81.23, 70.83 67.33 05/13/2021 03:13:32 81.23, 70.70 67.36 2.30 13
128 05/13/2021 04:04:29 -81.22,-121.79 112.69 05/13/2021 04:04:17 -81.23,-121.94 112.66 2.54 12
129 05/13/2021 04:55:14 81.23, 45.45 67.32 05/13/2021 04:55:02 81.23, 45.31 67.34 2.37 12
130 05/13/2021 05:45:58 -81.22,-147.18 112.71 05/13/2021 05:45:47 -81.23,-147.33 112.68 2.60 11
131 05/13/2021 06:36:43 81.23, 20.06 67.30 05/13/2021 06:36:32 81.23, 19.92 67.33 2.43 11
132 05/13/2021 07:27:27 -81.22,-172.56 112.72 05/13/2021 07:27:17 -81.23,-172.72 112.69 2.65 10
133 05/13/2021 08:18:12 81.23, -5.33 67.29 05/13/2021 08:18:02 81.23, -5.47 67.31 2.50 10
134 05/13/2021 09:08:56 -81.22, 162.05 112.74 05/13/2021 09:08:47 -81.23, 161.89 112.71 2.70 9
135 05/13/2021 09:59:41 81.23, -30.72 67.27 05/13/2021 09:59:32 81.23, -30.86 67.30 2.56 9
136 05/13/2021 10:50:25 -81.23, 136.66 112.75 05/13/2021 10:50:17 -81.23, 136.50 112.72 2.76 8
137 05/13/2021 11:41:10 81.23, -56.10 67.26 05/13/2021 11:41:02 81.23, -56.26 67.28 2.62 8
138 05/13/2021 12:31:54 -81.23, 111.28 112.76 05/13/2021 12:31:47 -81.23, 111.11 112.74 2.81 7
139 05/13/2021 13:22:39 81.23, -81.49 67.24 05/13/2021 13:22:32 81.23, -81.65 67.27 2.69 7
140 05/13/2021 14:13:23 -81.23, 85.89 112.78 05/13/2021 14:13:17 -81.23, 85.72 112.75 2.87 6
141 05/13/2021 15:04:08 81.23,-106.88 67.23 05/13/2021 15:04:02 81.23,-107.04 67.26 2.75 6
142 05/13/2021 15:54:52 -81.23, 60.50 112.79 05/13/2021 15:54:47 -81.23, 60.33 112.77 2.92 5
143 05/13/2021 16:45:37 81.23,-132.26 67.21 05/13/2021 16:45:32 81.23,-132.43 67.24 2.82 5
144 05/13/2021 17:36:21 -81.23, 35.12 112.81 05/13/2021 17:36:17 -81.23, 34.94 112.78 2.98 4
145 05/13/2021 18:27:06 81.23,-157.65 67.20 05/13/2021 18:27:02 81.23,-157.82 67.23 2.88 4
146 05/13/2021 19:17:50 -81.23, 9.73 112.82 05/13/2021 19:17:47 -81.23, 9.55 112.80 3.03 3
147 05/13/2021 20:08:35 81.23, 176.96 67.18 05/13/2021 20:08:32 81.23, 176.79 67.21 2.95 3
148 05/13/2021 20:59:19 -81.23, -15.66 112.84 05/13/2021 20:59:17 -81.23, -15.84 112.81 3.09 2
149 05/13/2021 21:50:04 81.23, 151.58 67.17 05/13/2021 21:50:02 81.23, 151.40 67.20 3.01 2
150 05/13/2021 22:40:48 -81.23, -41.04 112.85 05/13/2021 22:40:47 -81.23, -41.23 112.83 3.14 1
151 05/13/2021 23:31:33 81.23, 126.19 67.16 05/13/2021 23:31:32 81.23, 126.01 67.18 3.07 1
152 05/14/2021 00:22:17 -81.23, -66.43 112.87 05/14/2021 00:22:17 -81.23, -66.62 112.84 3.19 0
153 05/14/2021 01:13:02 81.23, 100.80 67.14 05/14/2021 01:13:02 81.23, 100.62 67.17 3.14 0
154 05/14/2021 02:03:46 -81.23, -91.82 112.88 05/14/2021 02:03:47 -81.23, -92.01 112.85 3.25 1
155 05/14/2021 02:54:31 81.23, 75.41 67.13 05/14/2021 02:54:32 81.23, 75.23 67.15 3.20 1
156 05/14/2021 03:45:15 -81.23,-117.20 112.90 05/14/2021 03:45:16 -81.22,-117.01 112.92 3.29 1
157 05/14/2021 04:36:00 81.23, 50.03 67.11 05/14/2021 04:36:02 81.23, 49.84 67.14 3.27 2
158 05/14/2021 05:26:44 -81.23,-142.59 112.91 05/14/2021 05:26:46 -81.22,-142.40 112.94 3.23 2
159 05/14/2021 06:17:29 81.23, 24.64 67.10 05/14/2021 06:17:31 81.23, 24.83 67.07 3.29 2
160 05/14/2021 07:08:13 -81.23,-167.98 112.92 05/14/2021 07:08:16 -81.22,-167.79 112.95 3.18 3
161 05/14/2021 07:58:58 81.23, -0.75 67.08 05/14/2021 07:59:01 81.23, -0.56 67.05 3.23 3
162 05/14/2021 08:49:42 -81.23, 166.64 112.94 05/14/2021 08:49:46 -81.22, 166.82 112.97 3.12 4
163 05/14/2021 09:40:27 81.23, -26.13 67.07 05/14/2021 09:40:31 81.23, -25.95 67.04 3.17 4
164 05/14/2021 10:31:11 -81.23, 141.25 112.95 05/14/2021 10:31:16 -81.22, 141.43 112.98 3.07 5
165 05/14/2021 11:21:56 81.23, -51.52 67.05 05/14/2021 11:22:01 81.23, -51.34 67.03 3.10 5
166 05/14/2021 12:12:40 -81.23, 115.86 112.97 05/14/2021 12:12:46 -81.22, 116.04 113.00 3.02 6
167 05/14/2021 13:03:25 81.23, -76.91 67.04 05/14/2021 13:03:31 81.23, -76.73 67.01 3.04 6
168 05/14/2021 13:54:09 -81.23, 90.47 112.98 05/14/2021 13:54:16 -81.23, 90.65 113.01 2.96 7
169 05/14/2021 14:44:54 81.23,-102.30 67.03 05/14/2021 14:45:01 81.23,-102.12 67.00 2.98 7
170 05/14/2021 15:35:38 -81.23, 65.09 113.00 05/14/2021 15:35:46 -81.23, 65.26 113.03 2.91 8
171 05/14/2021 16:26:22 81.23,-127.68 67.01 05/14/2021 16:26:30 81.23,-127.51 66.98 2.91 8
172 05/14/2021 17:17:06 -81.23, 39.70 113.01 05/14/2021 17:17:15 -81.23, 39.87 113.04 2.85 9
173 05/14/2021 18:07:51 81.23,-153.07 67.00 05/14/2021 18:08:00 81.23,-152.90 66.97 2.85 9
174 05/14/2021 18:58:35 -81.23, 14.31 113.02 05/14/2021 18:58:45 -81.23, 14.48 113.05 2.80 10
175 05/14/2021 19:49:20 81.23,-178.46 66.98 05/14/2021 19:49:30 81.23,-178.29 66.95 2.79 10
176 05/14/2021 20:40:04 -81.23, -11.07 113.04 05/14/2021 20:40:15 -81.23, -10.91 113.07 2.75 11
177 05/14/2021 21:30:49 81.23, 156.16 66.97 05/14/2021 21:31:00 81.23, 156.32 66.94 2.73 11
178 05/14/2021 22:21:33 -81.23, -36.46 113.05 05/14/2021 22:21:45 -81.23, -36.30 113.08 2.69 12
179 05/14/2021 23:12:18 81.23, 130.77 66.96 05/14/2021 23:12:30 81.23, 130.93 66.93 2.66 12
180 05/15/2021 00:03:02 -81.23, -61.85 113.07 05/15/2021 00:03:15 -81.23, -61.69 113.10 2.64 13
181 05/15/2021 00:53:47 81.23, 105.38 66.94 05/15/2021 00:54:00 81.23, 105.53 66.91 2.60 13
182 05/15/2021 01:44:31 -81.23, -87.23 113.08 05/15/2021 01:44:45 -81.23, -87.08 113.11 2.59 14
183 05/15/2021 02:35:16 81.23, 79.99 66.93 05/15/2021 02:35:30 81.23, 80.14 66.90 2.54 14
184 05/15/2021 03:26:00 -81.23,-112.62 113.10 05/15/2021 03:26:15 -81.23,-112.47 113.13 2.53 15
185 05/15/2021 04:16:45 81.23, 54.61 66.91 05/15/2021 04:17:00 81.23, 54.75 66.88 2.48 15
186 05/15/2021 05:07:29 -81.23,-138.01 113.11 05/15/2021 05:07:45 -81.23,-137.86 113.14 2.48 16
187 05/15/2021 05:58:14 81.23, 29.22 66.90 05/15/2021 05:58:30 81.23, 29.36 66.87 2.42 16
188 05/15/2021 06:48:58 -81.23,-163.39 113.12 05/15/2021 06:49:15 -81.23,-163.25 113.15 2.43 17
189 05/15/2021 07:39:43 81.23, 3.83 66.89 05/15/2021 07:40:00 81.23, 3.97 66.86 2.35 17
190 05/15/2021 08:30:27 -81.23, 171.22 113.14 05/15/2021 08:30:45 -81.23, 171.36 113.17 2.37 18
191 05/15/2021 09:21:12 81.23, -21.55 66.87 05/15/2021 09:21:30 81.23, -21.42 66.84 2.29 18
192 05/15/2021 10:11:56 -81.23, 145.83 113.15 05/15/2021 10:12:15 -81.23, 145.97 113.18 2.32 19
193 05/15/2021 11:02:41 81.23, -46.94 66.86 05/15/2021 11:03:00 81.23, -46.81 66.83 2.23 19
194 05/15/2021 11:53:25 -81.23, 120.44 113.17 05/15/2021 11:53:45 -81.23, 120.58 113.20 2.27 20
195 05/15/2021 12:44:10 81.23, -72.33 66.84 05/15/2021 12:44:30 81.23, -72.20 66.81 2.17 20
196 05/15/2021 13:34:54 -81.23, 95.06 113.18 05/15/2021 13:35:15 -81.23, 95.19 113.21 2.21 21
197 05/15/2021 14:25:39 81.23, -97.72 66.83 05/15/2021 14:26:00 81.23, -97.59 66.80 2.11 21
198 05/15/2021 15:16:23 -81.23, 69.67 113.19 05/15/2021 15:16:45 -81.23, 69.80 113.22 2.16 22
199 05/15/2021 16:07:08 81.23,-123.10 66.82 05/15/2021 16:07:30 81.23,-122.98 66.79 2.05 22
200 05/15/2021 16:57:52 -81.23, 44.28 113.21 05/15/2021 16:58:15 -81.23, 44.41 113.24 2.11 23
201 05/15/2021 17:48:37 81.23,-148.49 66.80 05/15/2021 17:49:00 81.23,-148.37 66.77 1.98 23
202 05/15/2021 18:39:21 -81.23, 18.90 113.22 05/15/2021 18:39:45 -81.23, 19.02 113.25 2.05 24
203 05/15/2021 19:30:06 81.23,-173.88 66.79 05/15/2021 19:30:30 81.23,-173.76 66.76 1.92 24
204 05/15/2021 20:20:50 -81.23, -6.49 113.23 05/15/2021 20:21:15 -81.23, -6.37 113.27 2.00 25
205 05/15/2021 21:11:35 81.23, 160.73 66.77 05/15/2021 21:12:00 81.23, 160.84 66.75 1.86 25
206 05/15/2021 22:02:19 -81.23, -31.88 113.25 05/15/2021 22:02:45 -81.23, -31.76 113.28 1.95 26
207 05/15/2021 22:53:04 81.23, 135.35 66.76 05/15/2021 22:53:30 81.23, 135.45 66.73 1.80 26
208 05/15/2021 23:43:48 -81.23, -57.26 113.26 05/15/2021 23:44:15 -81.23, -57.15 113.29 1.89 27
209 05/16/2021 00:34:33 81.23, 109.96 66.75 05/16/2021 00:35:00 81.23, 110.06 66.72 1.74 27
210 05/16/2021 01:25:17 -81.23, -82.65 113.28 05/16/2021 01:25:45 -81.23, -82.54 113.31 1.84 28
211 05/16/2021 02:16:02 81.23, 84.57 66.73 05/16/2021 02:16:30 81.23, 84.67 66.70 1.68 28
212 05/16/2021 03:06:46 -81.23,-108.04 113.29 05/16/2021 03:07:15 -81.23,-107.93 113.32 1.79 29
213 05/16/2021 03:57:31 81.23, 59.19 66.72 05/16/2021 03:58:00 81.23, 59.28 66.69 1.62 29
214 05/16/2021 04:48:15 -81.23,-133.43 113.30 05/16/2021 04:48:45 -81.23,-133.32 113.33 1.74 30
215 05/16/2021 05:38:59 81.23, 34.19 66.65 05/16/2021 05:39:29 81.23, 34.28 66.62 1.56 30
216 05/16/2021 06:29:44 -81.23,-158.81 113.32 05/16/2021 06:30:15 -81.23,-158.71 113.35 1.68 31
217 05/16/2021 07:20:28 81.23, 8.80 66.64 05/16/2021 07:20:59 81.23, 8.89 66.61 1.50 31
218 05/16/2021 08:11:13 -81.23, 175.80 113.33 05/16/2021 08:11:45 -81.23, 175.90 113.36 1.63 32
219 05/16/2021 09:01:57 81.23, -16.59 66.62 05/16/2021 09:02:29 81.23, -16.50 66.59 1.44 32
220 05/16/2021 09:52:42 -81.23, 150.41 113.34 05/16/2021 09:53:15 -81.23, 150.51 113.38 1.58 33
221 05/16/2021 10:43:26 81.23, -41.97 66.61 05/16/2021 10:43:59 81.23, -41.90 66.58 1.38 33
222 05/16/2021 11:34:11 -81.23, 125.03 113.36 05/16/2021 11:34:45 -81.23, 125.12 113.39 1.53 34
223 05/16/2021 12:24:55 81.23, -67.36 66.60 05/16/2021 12:25:29 81.23, -67.29 66.57 1.32 34
224 05/16/2021 13:15:40 -81.23, 99.64 113.37 05/16/2021 13:16:15 -81.23, 99.73 113.40 1.48 35
225 05/16/2021 14:06:24 81.23, -92.75 66.58 05/16/2021 14:06:59 81.23, -92.68 66.55 1.26 35
226 05/16/2021 14:57:09 -81.23, 74.25 113.38 05/16/2021 14:57:45 -81.23, 74.34 113.42 1.42 36
227 05/16/2021 15:47:53 81.23,-118.14 66.57 05/16/2021 15:48:29 81.23,-118.07 66.54 1.19 36
228 05/16/2021 16:38:38 -81.23, 48.86 113.40 05/16/2021 16:39:15 -81.23, 48.95 113.43 1.37 37
229 05/16/2021 17:29:22 81.23,-143.52 66.56 05/16/2021 17:29:59 81.23,-143.46 66.53 1.13 37
230 05/16/2021 18:20:07 -81.23, 23.48 113.41 05/16/2021 18:20:45 -81.23, 23.56 113.44 1.32 38
231 05/16/2021 19:10:50 81.23,-168.91 66.54 05/16/2021 19:11:28 81.23,-168.85 66.51 1.07 38
232 05/16/2021 20:01:35 -81.24, -1.91 113.42 05/16/2021 20:02:14 -81.24, -1.83 113.46 1.27 39
233 05/16/2021 20:52:19 81.23, 165.70 66.53 05/16/2021 20:52:58 81.23, 165.76 66.50 1.01 39
234 05/16/2021 21:43:04 -81.24, -27.30 113.44 05/16/2021 21:43:44 -81.24, -27.23 113.47 1.22 40
235 05/16/2021 22:33:48 81.23, 140.31 66.52 05/16/2021 22:34:28 81.23, 140.37 66.49 0.95 40
236 05/16/2021 23:24:32 -81.23, -52.30 113.51 05/16/2021 23:25:13 -81.23, -52.23 113.54 1.17 41
237 05/17/2021 00:15:17 81.23, 114.93 66.50 05/17/2021 00:15:58 81.23, 114.98 66.47 0.89 41
238 05/17/2021 01:06:01 -81.23, -77.68 113.52 05/17/2021 01:06:43 -81.23, -77.62 113.55 1.11 42
239 05/17/2021 01:56:46 81.23, 89.54 66.49 05/17/2021 01:57:28 81.23, 89.59 66.46 0.83 42
240 05/17/2021 02:47:30 -81.23,-103.07 113.53 05/17/2021 02:48:13 -81.23,-103.01 113.57 1.06 43
241 05/17/2021 03:38:15 81.23, 64.15 66.48 05/17/2021 03:38:58 81.23, 64.20 66.45 0.77 43
242 05/17/2021 04:28:59 -81.23,-128.46 113.55 05/17/2021 04:29:43 -81.23,-128.40 113.58 1.01 44
243 05/17/2021 05:19:44 81.23, 38.76 66.46 05/17/2021 05:20:28 81.23, 38.80 66.43 0.71 44
244 05/17/2021 06:10:28 -81.23,-153.85 113.56 05/17/2021 06:11:13 -81.23,-153.79 113.59 0.96 45
245 05/17/2021 07:01:13 81.23, 13.38 66.45 05/17/2021 07:01:58 81.23, 13.41 66.42 0.65 45
246 05/17/2021 07:51:57 -81.23,-179.23 113.57 05/17/2021 07:52:43 -81.23,-179.18 113.61 0.90 46
247 05/17/2021 08:42:42 81.23, -12.01 66.44 05/17/2021 08:43:28 81.23, -11.98 66.41 0.59 46
248 05/17/2021 09:33:26 -81.23, 155.38 113.58 05/17/2021 09:34:13 -81.23, 155.43 113.62 0.85 47
249 05/17/2021 10:24:11 81.23, -37.40 66.43 05/17/2021 10:24:58 81.23, -37.37 66.39 0.53 47
250 05/17/2021 11:14:55 -81.23, 129.99 113.60 05/17/2021 11:15:43 -81.23, 130.04 113.63 0.80 48
251 05/17/2021 12:05:40 81.23, -62.79 66.41 05/17/2021 12:06:28 81.23, -62.76 66.38 0.47 48
252 05/17/2021 12:56:24 -81.23, 104.61 113.61 05/17/2021 12:57:13 -81.23, 104.65 113.65 0.75 49
253 05/17/2021 13:47:09 81.23, -88.17 66.40 05/17/2021 13:47:58 81.23, -88.15 66.37 0.41 49
254 05/17/2021 14:37:53 -81.23, 79.22 113.62 05/17/2021 14:38:43 -81.23, 79.26 113.66 0.69 50
255 05/17/2021 15:28:38 81.23,-113.56 66.39 05/17/2021 15:29:28 81.23,-113.54 66.35 0.35 50
256 05/17/2021 16:19:22 -81.23, 53.83 113.64 05/17/2021 16:20:13 -81.23, 53.87 113.67 0.64 51
257 05/17/2021 17:10:07 81.23,-138.95 66.37 05/17/2021 17:10:58 81.23,-138.93 66.34 0.29 51
258 05/17/2021 18:00:51 -81.23, 28.44 113.65 05/17/2021 18:01:43 -81.23, 28.48 113.69 0.59 52
259 05/17/2021 18:51:36 81.23,-164.34 66.36 05/17/2021 18:52:28 81.23,-164.32 66.33 0.23 52
260 05/17/2021 19:42:20 -81.23, 3.06 113.66 05/17/2021 19:43:13 -81.23, 3.09 113.70 0.54 53
261 05/17/2021 20:33:05 81.23, 170.28 66.35 05/17/2021 20:33:58 81.23, 170.29 66.32 0.17 53
262 05/17/2021 21:23:49 -81.23, -22.33 113.68 05/17/2021 21:24:43 -81.23, -22.30 113.71 0.48 54
263 05/17/2021 22:14:34 81.23, 144.89 66.33 05/17/2021 22:15:28 81.23, 144.89 66.30 0.11 54
264 05/17/2021 23:05:18 -81.23, -47.72 113.69 05/17/2021 23:06:13 -81.23, -47.69 113.72 0.43 55
265 05/17/2021 23:56:03 81.23, 119.50 66.32 05/17/2021 23:56:58 81.24, 119.50 66.29 0.06 55
266 05/18/2021 00:46:47 -81.23, -73.11 113.70 05/18/2021 00:47:43 -81.23, -73.08 113.74 0.38 56
267 05/18/2021 01:37:32 81.24, 94.11 66.31 05/18/2021 01:38:28 81.24, 94.11 66.28 0.03 56
268 05/18/2021 02:28:16 -81.23, -98.49 113.71 05/18/2021 02:29:13 -81.23, -98.47 113.75 0.33 57
269 05/18/2021 03:19:01 81.24, 68.72 66.30 05/18/2021 03:19:58 81.24, 68.72 66.26 0.07 57
270 05/18/2021 04:09:45 -81.23,-123.88 113.73 05/18/2021 04:10:43 -81.23,-123.86 113.76 0.27 58
271 05/18/2021 05:00:30 81.24, 43.34 66.28 05/18/2021 05:01:28 81.24, 43.33 66.25 0.13 58
272 05/18/2021 05:51:14 -81.23,-149.27 113.74 05/18/2021 05:52:13 -81.23,-149.25 113.78 0.22 59
273 05/18/2021 06:41:59 81.24, 17.95 66.27 05/18/2021 06:42:58 81.24, 17.94 66.24 0.19 59
274 05/18/2021 07:32:43 -81.23,-174.65 113.75 05/18/2021 07:33:43 -81.23,-174.65 113.79 0.17 60
275 05/18/2021 08:23:28 81.24, -7.44 66.26 05/18/2021 08:24:28 81.24, -7.45 66.23 0.24 60
276 05/18/2021 09:14:12 -81.23, 159.96 113.77 05/18/2021 09:15:13 -81.23, 159.96 113.80 0.12 61
277 05/18/2021 10:04:57 81.24, -32.83 66.25 05/18/2021 10:05:58 81.24, -32.84 66.21 0.30 61
278 05/18/2021 10:55:41 -81.24, 134.57 113.78 05/18/2021 10:56:43 -81.23, 134.57 113.81 0.07 62
279 05/18/2021 11:46:26 81.24, -58.21 66.23 05/18/2021 11:47:28 81.24, -58.23 66.20 0.36 62
280 05/18/2021 12:37:10 -81.24, 109.18 113.79 05/18/2021 12:38:13 -81.24, 109.18 113.83 0.02 63
281 05/18/2021 13:27:55 81.24, -83.60 66.22 05/18/2021 13:28:58 81.24, -83.63 66.19 0.42 63
282 05/18/2021 14:18:39 -81.24, 83.80 113.80 05/18/2021 14:19:43 -81.24, 83.79 113.84 0.04 64
283 05/18/2021 15:09:24 81.24,-108.99 66.21 05/18/2021 15:10:28 81.24,-109.02 66.18 0.48 64
284 05/18/2021 16:00:08 -81.24, 58.41 113.82 05/18/2021 16:01:13 -81.24, 58.40 113.85 0.09 65
285 05/18/2021 16:50:53 81.24,-134.38 66.20 05/18/2021 16:51:58 81.24,-134.41 66.16 0.54 65
286 05/18/2021 17:41:37 -81.24, 33.02 113.83 05/18/2021 17:42:43 -81.24, 33.01 113.87 0.15 66
287 05/18/2021 18:32:22 81.24,-159.76 66.18 05/18/2021 18:33:28 81.24,-159.80 66.15 0.60 66
288 05/18/2021 19:23:06 -81.24, 7.63 113.84 05/18/2021 19:24:13 -81.24, 7.62 113.88 0.20 67
289 05/18/2021 20:13:51 81.24, 174.85 66.17 05/18/2021 20:14:58 81.24, 174.81 66.14 0.65 67
290 05/18/2021 21:04:35 -81.24, -17.75 113.85 05/18/2021 21:05:43 -81.24, -17.77 113.89 0.25 68
291 05/18/2021 21:55:20 81.24, 149.46 66.16 05/18/2021 21:56:28 81.24, 149.42 66.13 0.71 68
292 05/18/2021 22:46:03 -81.24, -43.14 113.87 05/18/2021 22:47:12 -81.24, -43.16 113.90 0.30 69
293 05/18/2021 23:36:48 81.24, 124.07 66.15 05/18/2021 23:37:57 81.24, 124.03 66.11 0.77 69
294 05/19/2021 00:27:32 -81.24, -68.53 113.88 05/19/2021 00:28:42 -81.24, -68.55 113.92 0.35 70
295 05/19/2021 01:18:17 81.24, 98.68 66.13 05/19/2021 01:19:27 81.24, 98.64 66.10 0.83 70
296 05/19/2021 02:09:01 -81.24, -93.92 113.89 05/19/2021 02:10:12 -81.24, -93.94 113.93 0.40 71
297 05/19/2021 02:59:46 81.24, 73.30 66.12 05/19/2021 03:00:57 81.24, 73.25 66.09 0.89 71
298 05/19/2021 03:50:30 -81.24,-119.30 113.90 05/19/2021 03:51:42 -81.24,-119.33 113.94 0.46 72
299 05/19/2021 04:41:15 81.24, 47.91 66.11 05/19/2021 04:42:27 81.24, 47.85 66.08 0.94 72
300 05/19/2021 05:31:59 -81.24,-144.69 113.92 05/19/2021 05:33:12 -81.24,-144.72 113.95 0.51 73
301 05/19/2021 06:22:44 81.24, 22.52 66.10 05/19/2021 06:23:57 81.24, 22.46 66.06 1.00 73
302 05/19/2021 07:13:28 -81.24,-170.08 113.93 05/19/2021 07:14:42 -81.24,-170.11 113.97 0.56 74
303 05/19/2021 08:04:13 81.24, -2.87 66.08 05/19/2021 08:05:27 81.24, -2.93 66.05 1.06 74
304 05/19/2021 08:54:57 -81.24, 164.53 113.94 05/19/2021 08:56:12 -81.24, 164.50 113.98 0.61 75



Historial Predications of SNOs between FY3D and NPP
